Regional Weather Roundup
Issued by NWS

Home | Current Version | Previous Version | Text Only | Print | Product List | Glossary On
Versions: 1 2 3 4 5 6 7 8 9 10 11 12 13 14 15 16 17 18 19 20 21 22 23 24 25 26 27
000
ASUS42 KFFC 310803
RWRGA
WEATHER ROUNDUP FOR GEORGIA
NATIONAL WEATHER SERVICE PEACHTREE CITY GA
400 AM EDT TUE MAY 31 2016

NOTE: "FAIR" INDICATES FEW OR NO CLOUDS BELOW 12,000 FEET WITH NO
SIGNIFICANT WEATHER AND/OR OBSTRUCTIONS TO VISIBILITY.

* = USE WITH CAUTION. THE STATIONS MARKED WITH AN ASTERISK MAY NOT
REPORT WEATHER SUCH AS PRECIPITATION, FOG, OR THUNDER AND ARE NOT
QUALITY CONTROLLED BY NWS.

THE REMARK "TC" DENOTES TEMPERATURE READING IN DEGREES CELSIUS.

GAZ001>058-310900-
NORTH GEORGIA

CITY           SKY/WX    TMP DP  RH WIND       PRES   REMARKS
ATLANTA        PTCLDY    74  59  59 N8        29.93S
ATHENS         CLEAR     69  66  90 E6        29.93F
CHAMBLEE       CLEAR     71  61  70 CALM      29.94R
ROME           CLEAR     65  62  90 CALM      29.92F
WEST ATLANTA   CLEAR     66  61  84 CALM      29.93S
GAINESVILLE    CLOUDY    69  62  78 NE3       29.97S
CARTERSVILLE   CLEAR     61  61 100 CALM      29.94S FOG


CITY           SKY/WX    TMP DP  RH WIND       PRES   REMARKS
DALTON*        CLEAR     63  63 100 CALM      29.93F
MARIETTA       CLEAR     69  62  80 CALM      29.94S
CANTON*        CLEAR     64  55  72 CALM      29.97S
BLAIRSVILLE*     N/A    N/A N/A N/A MISG      30.00S
$$

GAZ059>098-102>109-310900-
CENTRAL GEORGIA

CITY           SKY/WX    TMP DP  RH WIND       PRES   REMARKS
AUGUSTA-BUSH   CLEAR     65  65 100 CALM      29.90S
AUGUSTA-DANIEL CLEAR     72  67  84 N3        29.91F
COLUMBUS       CLEAR     70  65  84 CALM      29.90F
MACON          CLEAR     67  65  93 CALM      29.88S


CITY           SKY/WX    TMP DP  RH WIND       PRES   REMARKS
LAGRANGE*      CLEAR     65  65 100 CALM      29.92S
SYLVANIA*      CLEAR     70  69  94 CALM      29.89F
MILLEDGEVILLE* CLEAR     70  66  88 CALM      29.90S
$$

GAZ099>101-110>166-310900-
SOUTH GEORGIA

CITY           SKY/WX    TMP DP  RH WIND       PRES   REMARKS
SAVANNAH       MOCLDY    70  68  93 W3        29.87F
VALDOSTA       CLEAR     68  67  96 CALM      29.90F
ALMA           MOCLDY    68  67  96 CALM      29.88F
ST SIMONS      CLEAR     73  67  81 SW9       29.88S
FT STEWART     MOCLDY    72  67  86 CALM      29.85F
ALBANY         CLEAR     71  64  78 W3        29.91F
HUNTER AFB     MOCLDY    71  71 100 CALM      29.84F
MOODY AFB      CLEAR     71  67  88 SW5       29.89F
BRUNSWICK      CLEAR     77  70  78 W7        29.88F


CITY           SKY/WX    TMP DP  RH WIND       PRES   REMARKS
BAINBRIDGE*    CLEAR     72  68  88 CALM      29.91S
MOULTRIE*      CLEAR     72  66  83 CALM      29.91F
VIDALIA*       CLEAR     72  64  78 CALM      29.89S
WAYCROSS*      MOCLDY    69  68  96 SW3       29.88F
DOUGLAS*       CLEAR     72  68  88 CALM      29.90S
$$




USA.gov is the U.S. government's official web portal to all federal, state and local government web resources and services.